Wind_Speed
60 61 62 62 63 65 65 66 66 65 66 68 69 70 71 72 73 74 76 78 79 78 77 74 72 71 69 67 65 63 60 59 56 49 48 48 48 47 45 42 37 32 29
61 62 62 63 65 66 66 66 66 66 67 69 69 70 71 72 73 74 76 78 78 77 75 72 70 69 67 65 64 61 58 57 55 51 47 47 46 46 43 41 38 34 29
61 62 62 64 66 66 66 66 67 67 68 69 70 70 71 72 73 74 75 76 76 75 73 70 68 68 65 63 62 60 57 54 53 51 48 46 45 44 42 39 36 33 30
61 62 63 64 66 66 66 67 68 69 69 70 71 70 70 71 72 73 74 74 74 74 71 68 67 66 64 62 60 58 56 53 51 50 48 45 44 43 42 39 34 32 29
60 62 63 65 66 67 67 68 69 70 69 69 69 69 68 68 69 71 72 72 72 71 69 66 64 63 62 61 60 59 55 52 50 50 48 45 44 43 42 39 34 30 27
61 62 65 66 67 67 68 68 69 68 68 68 67 67 65 65 68 69 70 70 70 69 67 64 62 62 61 59 58 57 55 52 50 49 48 46 44 43 41 38 33 29 25
63 64 66 67 67 67 67 68 68 67 66 66 66 63 62 63 65 67 67 67 67 67 65 63 61 60 59 57 56 55 52 50 49 49 47 45 43 41 39 36 31 27 23
64 66 67 67 66 66 66 66 65 64 63 63 61 59 59 61 63 63 64 65 65 64 63 61 59 58 57 56 54 52 50 48 47 46 45 43 42 40 37 33 28 23 20
65 65 65 65 65 64 63 62 61 60 59 58 57 56 57 58 59 60 60 62 62 61 60 59 58 56 55 54 53 51 48 45 44 43 43 42 39 37 34 30 24 20 16
63 63 62 62 61 60 59 58 58 57 56 55 54 54 54 55 57 57 58 59 59 58 58 56 55 54 53 52 51 49 47 43 41 40 40 39 37 35 31 27 21 16 13
58 57 57 57 56 56 56 56 56 55 53 53 53 52 53 53 54 55 55 57 57 56 55 54 53 52 51 50 49 48 46 42 39 39 38 36 34 31 28 23 18 13 9
54 54 54 54 54 55 55 55 54 53 52 51 51 51 51 51 53 53 53 55 55 53 53 52 51 50 49 48 47 45 44 41 38 37 36 34 32 29 25 20 15 10 7
52 53 54 54 54 54 53 53 51 50 49 49 49 49 50 50 51 51 51 52 53 52 51 50 49 48 48 47 45 43 42 39 37 35 33 32 29 26 22 17 12 7 7
52 53 54 53 53 53 53 52 51 50 49 49 48 48 47 47 49 49 49 50 50 50 49 48 48 47 46 46 44 42 41 38 35 33 31 29 27 24 19 14 9 5 7
53 53 53 54 54 55 55 54 53 52 51 49 47 46 45 46 47 47 47 48 48 47 47 46 45 45 44 44 42 41 39 36 34 31 28 27 25 21 17 13 7 3 8
54 55 56 56 56 56 55 54 53 52 50 48 46 44 44 44 45 45 44 45 45 45 44 44 43 42 42 41 40 38 37 34 31 28 26 24 22 19 15 11 6 2 7
56 56 57 57 57 56 56 55 54 53 50 47 44 42 42 42 42 42 42 43 43 42 42 42 41 40 40 40 38 37 35 32 29 26 23 21 19 18 14 10 5 2 6
56 56 58 58 58 57 56 55 54 53 50 46 42 40 39 39 40 40 40 41 40 40 40 40 39 39 39 38 37 35 33 31 27 24 22 19 17 15 13 10 5 2 6
57 58 59 59 58 56 55 54 53 50 47 43 40 37 37 37 37 37 37 38 38 37 38 38 37 37 37 37 36 34 32 29 26 22 20 17 15 13 11 9 6 1 4
58 59 61 59 57 55 54 52 49 46 44 40 36 34 34 34 34 35 35 35 35 35 35 36 35 35 35 35 34 33 31 28 25 22 19 17 14 12 10 8 6 1 4
59 60 59 58 56 54 52 50 47 44 40 36 33 32 32 31 32 32 32 32 32 33 33 34 33 33 34 34 33 32 30 27 24 21 17 15 12 10 9 7 4 1 2
58 58 57 55 54 52 50 46 44 40 36 33 31 31 29 29 29 29 29 29 30 30 31 31 31 32 32 32 32 31 29 26 23 20 17 13 11 9 6 5 4 2 2
56 56 55 55 54 50 46 42 39 35 31 29 29 28 27 26 26 26 26 26 27 28 29 29 30 30 30 31 31 30 28 25 22 19 16 12 9 7 5 3 3 3 3
55 55 56 54 51 47 43 37 33 30 27 26 25 24 24 23 23 23 23 24 24 25 27 27 28 28 29 29 30 29 26 24 21 17 14 11 8 6 3 2 2 2 3
54 54 53 50 45 41 36 31 27 25 24 23 21 21 21 20 20 20 20 21 22 23 25 25 26 27 27 28 28 28 26 23 21 17 13 10 7 4 2 2 2 3 4
52 51 49 45 39 34 29 25 22 20 20 19 18 18 18 17 17 17 17 18 20 21 23 24 25 25 26 26 26 26 26 23 20 16 12 9 6 3 2 3 4 5 5
Wind_Direction
295 298 301 303 305 307 309 310 311 312 314 316 318 320 321 321 321 322 323 323 324 325 327 329 329 329 330 330 330 329 327 326 328 330 326 323 322 319 317 314 310 297 273
294 297 300 301 303 305 307 309 311 312 314 316 318 320 320 321 320 321 322 322 323 325 327 329 329 330 331 331 330 329 327 326 327 329 328 324 322 320 317 314 309 301 281
294 296 298 300 301 304 306 308 310 312 314 315 317 319 320 321 320 320 321 322 323 324 327 329 330 330 331 331 331 330 328 327 327 328 328 326 324 321 319 315 310 302 286
294 296 297 299 301 304 306 308 310 311 313 315 316 318 319 321 320 320 321 321 322 324 327 329 330 331 331 331 331 331 329 328 327 328 328 326 325 323 320 317 311 302 288
294 296 298 300 302 304 306 308 309 311 313 315 316 317 318 320 320 320 321 321 322 324 327 329 330 331 331 332 332 332 331 329 329 329 329 328 327 325 322 319 312 303 289
295 296 298 300 302 305 306 308 310 311 313 314 316 316 317 318 319 320 320 321 322 324 327 329 331 331 332 333 333 333 331 330 330 330 330 329 328 325 323 320 313 304 290
296 298 299 301 303 305 306 308 310 311 312 313 315 316 316 317 318 319 320 321 322 324 327 330 331 332 332 334 334 334 332 330 330 329 330 329 327 326 323 320 313 305 290
298 299 301 303 304 305 306 308 309 310 312 313 315 315 316 317 318 319 320 321 322 324 327 330 332 333 333 334 335 335 334 332 331 330 330 329 328 327 324 321 314 304 288
300 301 302 303 304 305 306 308 309 311 312 313 315 315 316 317 318 319 320 321 322 325 327 330 332 333 333 334 336 336 335 333 331 331 332 331 331 330 327 323 316 305 287
301 302 303 303 304 305 307 308 310 311 312 313 314 315 315 316 317 319 320 321 323 325 327 330 331 333 334 335 337 337 337 335 333 333 333 333 333 332 330 326 319 307 283
304 305 306 306 306 306 307 309 310 310 312 312 314 315 315 316 317 318 319 321 323 325 328 330 332 333 335 336 337 338 338 337 337 337 338 337 336 335 332 327 320 307 272
306 307 307 307 308 308 308 309 310 311 311 312 313 314 314 315 316 317 319 321 323 326 328 330 332 334 335 337 338 338 339 339 339 340 340 340 339 337 334 329 320 302 255
307 307 307 307 308 308 308 310 311 312 312 312 313 314 314 315 316 317 319 320 323 326 328 331 333 335 336 338 338 339 340 341 341 341 342 342 342 341 339 333 322 293 231
308 308 308 308 308 308 308 309 309 310 310 310 311 312 314 315 316 317 318 320 323 326 329 331 334 335 337 338 339 340 342 343 343 344 344 345 346 346 344 339 326 276 213
309 309 308 308 308 307 308 308 307 307 308 308 309 310 312 313 315 316 317 319 322 326 329 331 334 335 337 339 340 341 342 343 344 345 347 349 349 350 350 347 334 260 204
309 308 308 308 307 307 306 305 305 305 305 305 306 307 309 311 314 315 316 319 322 326 329 331 334 335 338 339 340 341 342 343 345 346 348 350 353 354 354 352 344 249 196
309 308 308 307 307 306 304 304 303 302 302 302 302 304 305 308 311 313 315 318 321 325 328 331 334 336 338 340 341 342 343 344 346 347 348 350 354 357 358 356 342 249 195
309 308 308 307 306 305 303 302 301 300 298 298 298 299 302 306 309 312 314 317 320 325 328 331 334 336 339 341 342 343 345 345 346 347 348 350 354 357 1 4 357 259 203
309 309 309 308 307 305 303 302 300 298 296 295 294 295 298 302 306 309 312 316 320 324 328 331 334 337 339 342 343 345 346 346 346 347 348 349 350 355 3 10 13 26 188
310 310 310 309 308 306 303 302 299 296 294 292 289 290 294 298 302 307 311 315 319 324 328 331 335 337 340 343 345 346 347 347 347 347 347 348 350 351 356 360 2 1 190
312 312 311 310 309 306 303 301 298 295 291 288 284 284 288 293 298 304 309 314 319 324 328 332 335 338 341 344 345 347 347 347 347 347 347 348 350 352 358 4 7 48 161
313 314 313 312 311 307 304 301 297 293 287 283 281 281 284 289 294 300 307 313 318 323 328 333 336 339 342 345 347 347 348 348 348 349 349 348 349 354 3 14 23 47 147
314 315 314 312 312 309 305 300 295 289 283 279 276 276 280 284 290 298 305 312 318 324 329 334 337 340 343 346 348 349 349 349 349 350 351 351 351 354 8 29 43 62 117
315 315 315 313 312 309 304 299 292 284 277 273 271 272 275 280 287 296 304 311 318 325 331 335 339 341 345 347 349 351 351 351 351 351 352 355 357 2 17 53 73 84 118
316 317 316 315 313 311 307 301 291 279 271 268 266 266 269 275 285 295 303 311 320 327 333 337 340 343 346 349 351 353 353 354 354 354 354 357 0 8 37 83 109 121 133
319 319 320 319 316 313 310 303 292 277 267 263 258 258 264 272 282 293 303 313 322 329 335 340 343 346 349 351 353 355 357 357 357 357 357 360 5 22 73 110 126 135 140
Height
5697 5692 5686 5679 5671 5663 5655 5647 5638 5628 5619 5609 5598 5588 5576 5565 5553 5541 5528 5514 5499 5483 5466 5451 5434 5417 5402 5386 5371 5356 5342 5328 5319 5314 5302 5290 5279 5269 5260 5252 5246 5242 5240
5685 5679 5673 5666 5658 5650 5642 5634 5625 5616 5606 5596 5586 5575 5564 5552 5540 5528 5515 5501 5487 5472 5456 5440 5424 5407 5392 5376 5362 5348 5334 5321 5310 5303 5295 5283 5272 5261 5253 5245 5238 5233 5230
5672 5666 5660 5652 5644 5637 5629 5621 5612 5603 5593 5583 5573 5562 5551 5540 5528 5516 5504 5490 5475 5460 5445 5429 5414 5397 5383 5368 5354 5340 5327 5314 5302 5293 5285 5275 5265 5254 5245 5238 5231 5225 5221
5658 5652 5645 5638 5631 5623 5616 5607 5598 5589 5580 5570 5560 5550 5539 5528 5516 5504 5492 5479 5464 5449 5434 5419 5404 5388 5374 5360 5347 5333 5319 5307 5296 5285 5276 5267 5257 5247 5237 5230 5223 5217 5213
5644 5638 5631 5623 5616 5609 5602 5593 5585 5576 5566 5557 5547 5537 5526 5515 5504 5492 5480 5468 5454 5439 5424 5409 5394 5379 5365 5350 5336 5323 5310 5299 5288 5278 5268 5259 5249 5239 5230 5222 5215 5210 5205
5629 5623 5616 5609 5602 5595 5587 5579 5571 5562 5553 5543 5534 5524 5513 5503 5492 5481 5469 5457 5444 5430 5416 5401 5386 5371 5357 5343 5329 5315 5302 5290 5280 5270 5261 5251 5242 5232 5223 5215 5208 5203 5199
5614 5608 5601 5594 5588 5580 5573 5565 5557 5548 5539 5530 5521 5511 5501 5491 5480 5469 5457 5446 5434 5420 5406 5392 5378 5364 5350 5337 5324 5310 5297 5284 5274 5264 5255 5245 5236 5227 5217 5210 5202 5197 5194
5599 5593 5587 5580 5573 5566 5558 5551 5542 5534 5526 5517 5508 5499 5489 5480 5469 5458 5447 5436 5423 5410 5397 5384 5371 5357 5343 5330 5319 5306 5292 5280 5270 5260 5250 5240 5231 5221 5212 5205 5198 5193 5190
5584 5578 5572 5565 5558 5551 5544 5536 5528 5520 5512 5504 5496 5487 5478 5468 5458 5448 5437 5426 5414 5401 5388 5375 5362 5350 5337 5325 5313 5300 5288 5277 5266 5255 5245 5235 5226 5217 5208 5201 5195 5191 5188
5569 5563 5557 5550 5543 5536 5529 5522 5515 5507 5499 5492 5484 5475 5466 5457 5448 5437 5427 5417 5406 5394 5381 5368 5355 5343 5330 5317 5306 5294 5284 5273 5263 5253 5242 5232 5223 5214 5206 5199 5194 5190 5188
5554 5548 5542 5535 5528 5522 5515 5509 5502 5494 5487 5480 5472 5464 5455 5447 5437 5427 5418 5408 5398 5386 5374 5361 5349 5337 5324 5312 5300 5289 5278 5268 5259 5249 5239 5230 5221 5213 5205 5199 5194 5191 5189
5541 5535 5528 5522 5515 5508 5502 5495 5488 5481 5474 5467 5460 5452 5444 5436 5427 5418 5408 5399 5389 5378 5367 5355 5343 5331 5319 5308 5296 5285 5275 5264 5255 5246 5237 5228 5220 5212 5205 5200 5196 5193 5192
5528 5521 5515 5509 5502 5495 5489 5482 5475 5468 5462 5455 5448 5441 5433 5425 5417 5409 5400 5390 5380 5370 5360 5348 5337 5326 5314 5303 5292 5282 5272 5262 5252 5244 5235 5227 5219 5212 5206 5201 5197 5195 5195
5515 5509 5502 5495 5489 5482 5475 5469 5463 5456 5450 5443 5437 5430 5423 5415 5408 5400 5391 5382 5373 5363 5352 5342 5331 5320 5309 5299 5288 5278 5268 5258 5250 5242 5234 5226 5219 5213 5207 5203 5200 5198 5199
5502 5495 5489 5482 5475 5468 5462 5456 5449 5444 5437 5431 5425 5419 5412 5406 5398 5391 5383 5375 5365 5356 5346 5336 5326 5316 5305 5294 5284 5274 5265 5256 5248 5241 5233 5227 5220 5214 5209 5205 5203 5202 5202
5489 5482 5475 5468 5461 5454 5448 5442 5435 5430 5424 5418 5413 5408 5402 5396 5389 5382 5375 5367 5358 5349 5340 5331 5321 5312 5302 5292 5282 5273 5263 5255 5247 5240 5233 5227 5221 5216 5212 5208 5206 5205 5206
5475 5468 5461 5453 5446 5440 5433 5427 5421 5416 5410 5405 5401 5396 5392 5386 5380 5374 5367 5360 5352 5343 5335 5326 5317 5308 5298 5288 5279 5270 5262 5253 5246 5239 5234 5228 5223 5218 5214 5211 5209 5209 5210
5460 5452 5445 5438 5431 5424 5417 5411 5406 5400 5396 5392 5388 5385 5381 5377 5371 5366 5360 5353 5346 5338 5329 5321 5312 5304 5295 5285 5276 5268 5259 5252 5245 5239 5233 5229 5224 5220 5216 5214 5212 5212 5212
5446 5438 5430 5423 5415 5408 5401 5395 5390 5385 5382 5379 5376 5374 5371 5367 5363 5358 5352 5346 5340 5332 5324 5316 5308 5300 5291 5282 5274 5265 5258 5250 5244 5238 5233 5229 5225 5222 5218 5216 5214 5214 5214
5431 5422 5414 5406 5399 5392 5385 5379 5374 5370 5368 5366 5365 5363 5361 5358 5355 5350 5346 5340 5334 5327 5320 5312 5304 5296 5288 5280 5271 5263 5256 5249 5243 5238 5233 5229 5225 5222 5220 5218 5216 5216 5216
5416 5407 5398 5390 5383 5376 5369 5364 5359 5356 5354 5353 5353 5352 5351 5349 5347 5343 5339 5334 5328 5322 5315 5308 5301 5293 5285 5277 5269 5262 5254 5248 5242 5237 5233 5229 5226 5223 5221 5219 5218 5217 5217
5401 5392 5383 5375 5368 5361 5354 5349 5345 5342 5341 5342 5342 5342 5342 5341 5339 5336 5332 5328 5323 5317 5311 5304 5297 5290 5283 5275 5267 5260 5253 5247 5241 5236 5232 5229 5226 5224 5222 5221 5220 5219 5219
5387 5378 5370 5361 5353 5346 5339 5334 5331 5329 5329 5330 5331 5332 5333 5333 5331 5329 5326 5323 5318 5313 5307 5301 5294 5288 5281 5273 5266 5259 5252 5246 5240 5236 5232 5229 5227 5225 5224 5223 5223 5222 5222
5374 5365 5356 5347 5339 5331 5325 5321 5319 5318 5319 5320 5322 5324 5325 5325 5325 5323 5321 5318 5313 5309 5303 5297 5291 5285 5279 5272 5264 5258 5251 5245 5240 5236 5232 5229 5227 5226 5225 5225 5225 5225 5225
5361 5352 5343 5334 5326 5319 5314 5310 5309 5309 5310 5312 5314 5316 5317 5318 5319 5318 5316 5313 5309 5305 5300 5295 5289 5283 5277 5270 5264 5257 5251 5245 5240 5236 5233 5230 5228 5227 5227 5227 5227 5228 5228
5348 5339 5331 5323 5316 5310 5305 5303 5301 5301 5303 5305 5307 5309 5311 5313 5313 5313 5312 5309 5306 5302 5297 5292 5287 5281 5276 5269 5263 5257 5251 5245 5241 5237 5234 5231 5230 5229 5229 5229 5230 5231 5232